Hundvaag 1 weather for Aug 1988
Month no. 14
Obs.
Da.
Temp. Dew Point Precip. Wind
Speed
Wind gusts Cloud cover Press. Humidity Wind dir. Sunny OPT
01.08.1988 12,1   8,5             1  
02.08.1988 12,3   0,3             1  
03.08.1988 11,6   0,0                
04.08.1988 11,3   7,1             1  
05.08.1988 12,9   3,1             1  
06.08.1988 13,4   0,0             1  
07.08.1988 13,9   0,1             1  
08.08.1988 14,3   0,0             1  
09.08.1988 14,7   0,0             1  
10.08.1988 14,8   0,3             1  
11.08.1988 14,2   0,0             1  
12.08.1988 13,6   5,1                
13.08.1988 14,2   18,3             1  
14.08.1988 14,6   7,4             1  
15.08.1988 14,9   21,1             1  
16.08.1988 13,5   12,2                
17.08.1988 12,8   4,1             1  
18.08.1988 12,9   1,1                
19.08.1988 14,6   4,0                
20.08.1988 13,7   38,7             1  
21.08.1988 14,7   3,3             1  
22.08.1988 12,3   0,8             1  
23.08.1988 11,6   0,0             1  
24.08.1988 9,9   0,0             1  
25.08.1988 12,7   3,4                
26.08.1988 13,4   7,0             1  
27.08.1988 13,8   1,1             1  
28.08.1988 14,0   12,0             1  
29.08.1988 11,4   35,1             1  
30.08.1988 11,6   6,4             1  
31.08.1988 13,9   2,4                
Avrg/Sum 13,2   202,9             24